942  
NZUS93 KARX 240510  
HRRWXR  
 
CURRENT HOURLY OBSERVATIONS ACROSS  
MUCH OF THE UPPER MISSISSIPPI VALLEY  
NATIONAL WEATHER SERVICE LA CROSSE WI  
1200 AM CDT WED OCT 24 2018  
 
   
..SOUTHEAST MINNESOTA
 
 
 
CITY SKY/WX TMP DP RH WIND PRES REMARKS  
ROCHESTER FAIR 33 27 78 CALM 30.38R  
ROCHESTER/MAYO FAIR 36 29 76 CALM 30.38S  
WINONA FAIR 32 30 93 CALM 30.40S  
AUSTIN FAIR 28 27 93 E3 30.37S  
ALBERT LEA FAIR 30 28 93 CALM 30.38R  
DODGE CENTER FAIR 34 27 75 CALM 30.37S  
PRESTON FAIR 34 27 76 CALM 30.38S  
OWATONNA FAIR 30 27 86 CALM 30.37F  
FARIBAULT NOT AVBL  

 
   
..ELSEWHERE IN MINNESOTA
 
 
 
CITY SKY/WX TMP DP RH WIND PRES REMARKS  
MINNEAPOLIS FAIR 36 29 75 CALM 30.39R  
INTNL FALLS FAIR 23 22 96 CALM 30.38S  
DULUTH FAIR 29 24 82 CALM 30.38R  
RED WING FAIR 28 25 86 CALM 30.38S  
REDWOOD FALLS FAIR 34 26 72 E5 30.36S WCI 30  
MANKATO FAIR 35 28 75 SE7 30.38R WCI 29  
WORTHINGTON FAIR 33 25 72 SE5 30.35S WCI 29  
FAIRMONT FAIR 29 24 82 CALM 30.37S  

 
   
..SOUTHWEST WISCONSIN
 
 
 
CITY SKY/WX TMP DP RH WIND PRES REMARKS  
LA CROSSE FAIR 35 30 82 CALM 30.39R  
PRAIRIE DU CHI FAIR 34 29 85 CALM 30.38S  
BOSCOBEL FAIR 31 28 89 CALM 30.39R  
LONE ROCK FAIR 29 28 96 CALM 30.38S  
PLATTEVILLE FAIR 37 31 78 N5 30.37R WCI 33  
FORT MC COY FAIR 26 25 96 CALM 30.39S  
MAUSTON-NEW LI FAIR 32 30 92 CALM 30.38R  
VIROQUA FAIR 36 31 81 CALM 30.37R  
WIS DELLS FAIR 31 27 85 CALM 30.38R  

 
   
..ELSEWHERE IN WISCONSIN
 
 
 
CITY SKY/WX TMP DP RH WIND PRES REMARKS  
MILWAUKEE FAIR 39 35 86 NW3 30.38R  
MADISON FAIR 32 30 92 CALM 30.36S  
GREEN BAY CLOUDY 36 32 85 NW5 30.41R WCI 32  
EAU CLAIRE FAIR 28 26 92 CALM 30.39R  
BLACK RVR FLS FAIR 22 22 100 CALM 30.38S  
MEDFORD FAIR 28 26 92 CALM 30.37S  
WAUSAU FAIR 32 28 85 CALM 30.37S  
WIS RAPIDS FAIR 35 27 72 NE3 30.40R  
MARSHFIELD FAIR 33 28 81 NE3 30.37R  
RICE LAKE FAIR 27 27 99 CALM 30.40S  

 
   
..NORTHEAST IOWA
 
 
 
CITY SKY/WX TMP DP RH WIND PRES REMARKS  
WATERLOO FAIR 32 30 92 CALM 30.37S  
DUBUQUE FAIR 39 29 67 N7 30.37R WCI 34  
DECORAH FAIR 34 30 86 CALM 30.36F  
MASON CITY FAIR 28 26 92 NE3 30.39R  
CHARLES CITY FAIR 34 28 80 NE5 30.38R WCI 30  
OELWEIN NOT AVBL  

 
   
..ELSEWHERE IN IOWA
 
 
 
CITY SKY/WX TMP DP RH WIND PRES REMARKS  
DES MOINES FAIR 38 31 76 CALM 30.36R  
IOWA CITY FAIR 35 31 85 CALM 30.38R  
FORT DODGE FAIR 33 27 78 CALM 30.37R  
MARSHALLTOWN FAIR 32 28 85 NE3 30.36R  
CEDAR RAPIDS FAIR 36 29 75 N6 30.36R WCI 31  

 
   
..NORTHERN ILLINOIS
 
 
 
CITY SKY/WX TMP DP RH WIND PRES REMARKS  
CHICAGO-OHARE FAIR 40 35 83 CALM 30.36R  
CHICAGO-MIDWAY FAIR 41 35 79 CALM 30.37R  
MOLINE FAIR 35 31 85 CALM 30.36R  
ROCKFORD FAIR 33 29 85 CALM 30.38S  
PEORIA FAIR 37 32 82 CALM 30.36S  

 
 
NOTE: "FAIR" INDICATES FEW OR NO CLOUDS BELOW 12,000 FEET WITH NO  
SIGNIFICANT WEATHER AND/OR OBSTRUCTIONS TO VISIBILITY. WIND  
SPEEDS ARE IN MILES-PER-HOUR.  
 
 
CLICK HERE TO GO TO PREVIOUS BULLETINS.

The Nexlab WI Page
The Nexlab IA Page
The Nexlab MN Page Main Text Page